World > North America > United States > Michigan > Caseville

Caseville, MI Hourly Weather Conditions

Feedback E-mail the Weather

Quick WX

Caseville, MI Weather Maps

°F °C°F °C
Caseville Weather Map
UTC Time: 2/1/2023, 20:00
Your Time:

Caseville, MI Regional Weather

Expires:202302012000;;630263
ASUS43 KDTX 011910
RWRMI 
MICHIGAN HOURLY REGIONAL WEATHER ROUNDUP
NATIONAL WEATHER SERVICE DETROIT/PONTIAC MI
200 PM EST WED FEB 01 2023

NOTE: "FAIR" INDICATES FEW OR NO CLOUDS BELOW 12,000 FEET WITH NO
SIGNIFICANT WEATHER AND/OR OBSTRUCTION TO VISIBILITY.


MIZ047>049-052>055-059>063-066>070-074>076-081>083-012000-
SOUTHEAST LOWER MICHIGAN
  
CITY           SKY/WX    TMP DP  RH WIND       PRES   REMARKS
ADRIAN         SUNNY     20   8  60 SW13      30.33F WCI   7          
ALMA           SUNNY     25  13  61 S13       30.22F WCI  13          
ANN ARBOR      SUNNY     22  10  60 SW10      30.30F WCI  11          
BAD AXE        SUNNY     24  13  65 SW16G23   30.19F WCI  10          
CARO           SUNNY     26  12  55 SW21      30.22F WCI  12          
DETROIT        MOSUNNY   23  11  60 SW17      30.32F WCI   9          
FLINT          SUNNY     24  13  62 SW13G21   30.25F WCI  12          
GROSSE ILE     SUNNY     24  12  61 W13       30.32F WCI  12          
HILLSDALE      SUNNY     21   0  40 SW7       30.28F WCI  12          
HOWELL         SUNNY     25  14  63 SW14G20   30.27S WCI  13          

CITY           SKY/WX    TMP DP  RH WIND       PRES   REMARKS
JACKSON        SUNNY     22  10  60 S13       30.29F WCI  10          
LAMBERTVILLE   SUNNY     24   5  44 SW8       30.34F WCI  15          
LANSING        SUNNY     24  12  60 SW18      30.28F WCI  10          
LAPEER         SUNNY     26  11  54 SW9G17    30.24F WCI  16          
MASON          SUNNY     23  10  58 SW7       30.28S WCI  15          
MONROE         SUNNY     22  11  62 SW12      30.33F WCI  11          
MT. CLEMENS    MOSUNNY   25  11  55 SW15      30.27F WCI  12          
PONTIAC        MOSUNNY   27  12  54 SW12G20   30.25F WCI  16          
PORT HOPE        N/A     23  13  65 SW10G23   30.18F WCI  12          
PORT HURON     SUNNY     25  12  58 S13       30.27F WCI  13          
TRI CITIES     SUNNY     24  14  65 SW23G33   30.22F WCI   9          
MIDLAND        MOSUNNY   26  15  62 SW12G18   30.20F WCI  15          
TROY           SUNNY     25  11  55 S9G16     30.30F WCI  15          
SAGINAW HB     SUNNY     26  14  59 SW22G28   30.23F WCI  12          
$$

SKY/WX - Weather  TMP - Temperature  DP - Dew Point  RH - Humidity
WIND - Wind Direction/Speed PRES - Barometric Pressure VSB - Visibility
WCI - Wind Chill Index E13G22 Wind - East Wind 13 mph/Gusts of 22 mph

Trending Headlines

Trending Entertainment Headlines

Caseville Radar Loop

Use the map search tool if you want to place a location marker on the radar map...

Caseville Quick Facts

National Two Day Weather Forecast


E-mail the Caseville Weather Forecast

Voice your opinion or tell us about page issues...